Station Historical Data
Daily Summary for May 4, 2017 Units:  English    Metric   Both
Next Day »
Daily Weekly Monthly Yearly Custom
  High: Low: Average:
Temperature: 83.9 °F 64.5 °F 71.9 °F
Dew Point: 61.5 °F 51.5 °F 55.8 °F
Humidity: 70% 42% 58%
Wind Speed: 13.0mph 0.0mph 3.5mph
Wind Gust: 22.0mph - -
Wind- - SSE
Pressure: 29.93 in 29.83 in -
Precipitation: 0.00 in    
Historical Graphs
 
 
Tabular Data for May 4, 2017
Time Temperature Dew Point Pressure Wind Wind Speed Wind Gust Humidity Rainfall Rate (Hourly) solar Conditions
00:02 66.8 °F 55.5 °F 29.92 in ESE 4.0 mph 11.0 mph 67% 0.00 in 0.00 W/m2
00:07 66.7 °F 55.4 °F 29.92 in ESE 6.0 mph 15.0 mph 67% 0.00 in 0.00 W/m2
00:12 66.7 °F 55.4 °F 29.92 in ESE 2.0 mph 15.0 mph 67% 0.00 in 0.00 W/m2
00:17 66.6 °F 55.3 °F 29.92 in ESE 7.0 mph 8.0 mph 67% 0.00 in 0.00 W/m2
00:22 66.6 °F 54.9 °F 29.92 in ESE 5.0 mph 7.0 mph 66% 0.00 in 0.00 W/m2
00:27 66.6 °F 54.9 °F 29.93 in Calm   16.0 mph 66% 0.00 in 0.00 W/m2
00:32 66.6 °F 54.9 °F 29.93 in ESE 9.0 mph 11.0 mph 66% 0.00 in 0.00 W/m2
00:37 66.6 °F 54.9 °F 29.93 in ESE 4.0 mph 8.0 mph 66% 0.00 in 0.00 W/m2
00:42 66.7 °F 55.0 °F 29.92 in ESE 1.0 mph 13.0 mph 66% 0.00 in 0.00 W/m2
00:47 66.7 °F 55.0 °F 29.92 in ESE 4.0 mph 14.0 mph 66% 0.00 in 0.00 W/m2
00:52 66.7 °F 54.6 °F 29.92 in ESE 1.0 mph 11.0 mph 65% 0.00 in 0.00 W/m2
00:57 66.7 °F 54.6 °F 29.92 in Calm   14.0 mph 65% 0.00 in 0.00 W/m2
01:02 66.7 °F 54.6 °F 29.92 in ESE 6.0 mph 9.0 mph 65% 0.00 in 0.00 W/m2
01:07 66.7 °F 54.6 °F 29.92 in East 5.0 mph 15.0 mph 65% 0.00 in 0.00 W/m2
01:12 66.6 °F 54.5 °F 29.92 in ESE 1.0 mph 8.0 mph 65% 0.00 in 0.00 W/m2
01:17 66.6 °F 54.5 °F 29.92 in ESE 11.0 mph 16.0 mph 65% 0.00 in 0.00 W/m2
01:22 66.6 °F 54.5 °F 29.92 in Calm   14.0 mph 65% 0.00 in 0.00 W/m2
01:27 66.6 °F 54.5 °F 29.92 in East 6.0 mph 13.0 mph 65% 0.00 in 0.00 W/m2
01:32 66.6 °F 54.5 °F 29.92 in East 4.0 mph 11.0 mph 65% 0.00 in 0.00 W/m2
01:37 66.6 °F 54.1 °F 29.92 in ESE 11.0 mph 16.0 mph 64% 0.00 in 0.00 W/m2
01:42 66.6 °F 54.1 °F 29.92 in ESE 1.0 mph 12.0 mph 64% 0.00 in 0.00 W/m2
01:47 66.5 °F 54.4 °F 29.91 in ESE 5.0 mph 11.0 mph 65% 0.00 in 0.00 W/m2
01:52 66.5 °F 54.0 °F 29.91 in East 1.0 mph 15.0 mph 64% 0.00 in 0.00 W/m2
01:57 66.5 °F 54.0 °F 29.91 in East 6.0 mph 8.0 mph 64% 0.00 in 0.00 W/m2
02:02 66.5 °F 54.0 °F 29.91 in ESE 5.0 mph 15.0 mph 64% 0.00 in 0.00 W/m2
02:04 66.5 °F 54.0 °F 29.91 in ESE 7.0 mph 16.0 mph 64% 0.00 in 0.00 W/m2
02:09 66.5 °F 54.0 °F 29.91 in East 4.0 mph 16.0 mph 64% 0.00 in 0.00 W/m2
02:14 66.4 °F 53.9 °F 29.91 in ESE 2.0 mph 15.0 mph 64% 0.00 in 0.00 W/m2
02:19 66.4 °F 53.9 °F 29.91 in ESE 2.0 mph 19.0 mph 64% 0.00 in 0.00 W/m2
02:24 66.3 °F 53.8 °F 29.91 in Calm   15.0 mph 64% 0.00 in 0.00 W/m2
02:29 66.3 °F 53.8 °F 29.91 in ESE 5.0 mph 12.0 mph 64% 0.00 in 0.00 W/m2
02:34 66.3 °F 54.2 °F 29.91 in East 2.0 mph 14.0 mph 65% 0.00 in 0.00 W/m2
02:39 66.2 °F 53.7 °F 29.91 in ESE 2.0 mph 14.0 mph 64% 0.00 in 0.00 W/m2
02:44 66.1 °F 53.6 °F 29.91 in Calm   14.0 mph 64% 0.00 in 0.00 W/m2
02:49 66.1 °F 53.6 °F 29.91 in East 3.0 mph 13.0 mph 64% 0.00 in 0.00 W/m2
02:54 66.1 °F 54.0 °F 29.91 in ESE 6.0 mph 16.0 mph 65% 0.00 in 0.00 W/m2
02:59 66.0 °F 53.9 °F 29.91 in East 1.0 mph 15.0 mph 65% 0.00 in 0.00 W/m2
03:04 66.0 °F 53.9 °F 29.91 in East 8.0 mph 15.0 mph 65% 0.00 in 0.00 W/m2
03:09 65.9 °F 54.2 °F 29.91 in East 4.0 mph 16.0 mph 66% 0.00 in 0.00 W/m2
03:14 65.9 °F 53.8 °F 29.91 in SE 7.0 mph 13.0 mph 65% 0.00 in 0.00 W/m2
03:19 65.8 °F 53.7 °F 29.91 in ESE 6.0 mph 21.0 mph 65% 0.00 in 0.00 W/m2
03:24 65.7 °F 53.6 °F 29.91 in East 4.0 mph 13.0 mph 65% 0.00 in 0.00 W/m2
03:29 65.7 °F 53.6 °F 29.91 in ESE 1.0 mph 15.0 mph 65% 0.00 in 0.00 W/m2
03:34 65.6 °F 53.5 °F 29.91 in ESE 2.0 mph 15.0 mph 65% 0.00 in 0.00 W/m2
03:39 65.6 °F 53.5 °F 29.91 in East 5.0 mph 14.0 mph 65% 0.00 in 0.00 W/m2
03:44 65.6 °F 53.5 °F 29.91 in Calm   16.0 mph 65% 0.00 in 0.00 W/m2
03:49 65.6 °F 54.0 °F 29.91 in Calm   13.0 mph 66% 0.00 in 0.00 W/m2
03:54 65.5 °F 53.4 °F 29.91 in ESE 1.0 mph 15.0 mph 65% 0.00 in 0.00 W/m2
03:59 65.5 °F 53.4 °F 29.91 in Calm   15.0 mph 65% 0.00 in 0.00 W/m2
04:04 65.4 °F 53.3 °F 29.91 in East 2.0 mph 9.0 mph 65% 0.00 in 0.00 W/m2
04:10 65.4 °F 53.3 °F 29.91 in East 4.0 mph 9.0 mph 65% 0.00 in 0.00 W/m2
04:15 65.4 °F 53.8 °F 29.91 in East 2.0 mph 9.0 mph 66% 0.00 in 0.00 W/m2
04:20 65.3 °F 53.2 °F 29.91 in East 6.0 mph 14.0 mph 65% 0.00 in 0.00 W/m2
04:25 65.3 °F 53.2 °F 29.91 in Calm   18.0 mph 65% 0.00 in 0.00 W/m2
04:29 65.2 °F 53.2 °F 29.91 in ESE 12.0 mph 14.0 mph 65% 0.00 in 0.00 W/m2
04:34 65.2 °F 53.6 °F 29.91 in Calm   14.0 mph 66% 0.00 in 0.00 W/m2
04:40 65.2 °F 53.2 °F 29.91 in ESE 6.0 mph 18.0 mph 65% 0.00 in 0.00 W/m2
04:45 65.1 °F 53.5 °F 29.91 in Calm   15.0 mph 66% 0.00 in 0.00 W/m2
04:50 65.1 °F 53.1 °F 29.91 in East 3.0 mph 14.0 mph 65% 0.00 in 0.00 W/m2
04:55 65.1 °F 53.1 °F 29.91 in ESE 4.0 mph 15.0 mph 65% 0.00 in 0.00 W/m2
05:00 65.1 °F 53.5 °F 29.91 in ESE 5.0 mph 16.0 mph 66% 0.00 in 0.00 W/m2
05:05 65.0 °F 53.4 °F 29.91 in ESE 4.0 mph 18.0 mph 66% 0.00 in 0.00 W/m2
05:10 65.0 °F 53.0 °F 29.91 in East 11.0 mph 19.0 mph 65% 0.00 in 0.00 W/m2
05:15 64.9 °F 52.9 °F 29.91 in East 5.0 mph 15.0 mph 65% 0.00 in 0.00 W/m2
05:20 64.9 °F 52.9 °F 29.91 in ESE 7.0 mph 20.0 mph 65% 0.00 in 0.00 W/m2
05:25 64.9 °F 52.9 °F 29.90 in ESE 1.0 mph 17.0 mph 65% 0.00 in 0.00 W/m2
05:30 64.9 °F 53.3 °F 29.91 in Calm   13.0 mph 66% 0.00 in 0.00 W/m2
05:35 64.9 °F 53.3 °F 29.91 in East 4.0 mph 15.0 mph 66% 0.00 in 0.00 W/m2
05:40 64.8 °F 52.8 °F 29.91 in ESE 4.0 mph 15.0 mph 65% 0.00 in 0.00 W/m2
05:45 64.8 °F 52.8 °F 29.91 in ESE 12.0 mph 14.0 mph 65% 0.00 in 0.00 W/m2
05:50 64.7 °F 52.7 °F 29.91 in ESE 6.0 mph 15.0 mph 65% 0.00 in 0.00 W/m2
05:55 64.7 °F 52.7 °F 29.91 in ESE 9.0 mph 11.0 mph 65% 0.00 in 0.00 W/m2
06:00 64.7 °F 52.7 °F 29.91 in ESE 2.0 mph 13.0 mph 65% 0.00 in 5.00 W/m2
06:05 64.7 °F 52.3 °F 29.91 in East 12.0 mph 16.0 mph 64% 0.00 in 7.00 W/m2
06:10 64.7 °F 52.3 °F 29.91 in ESE 11.0 mph 16.0 mph 64% 0.00 in 9.00 W/m2
06:15 64.7 °F 51.8 °F 29.91 in ESE 4.0 mph 14.0 mph 63% 0.00 in 11.00 W/m2
06:20 64.7 °F 52.3 °F 29.91 in ESE 6.0 mph 15.0 mph 64% 0.00 in 12.00 W/m2
06:25 64.7 °F 52.3 °F 29.91 in ESE 6.0 mph 18.0 mph 64% 0.00 in 16.00 W/m2
06:30 64.7 °F 52.7 °F 29.90 in East 2.0 mph 15.0 mph 65% 0.00 in 19.00 W/m2
06:35 64.7 °F 52.7 °F 29.90 in East 2.0 mph 15.0 mph 65% 0.00 in 28.00 W/m2
06:40 64.6 °F 52.6 °F 29.91 in ESE 1.0 mph 22.0 mph 65% 0.00 in 42.00 W/m2
06:41 64.6 °F 52.6 °F 29.90 in ESE 9.0 mph 9.0 mph 65% 0.00 in 42.00 W/m2
06:46 64.6 °F 52.6 °F 29.91 in East 9.0 mph 18.0 mph 65% 0.00 in 56.00 W/m2
06:51 64.5 °F 52.5 °F 29.91 in ESE 6.0 mph 6.0 mph 65% 0.00 in 72.00 W/m2
06:56 64.6 °F 52.6 °F 29.91 in ESE 8.0 mph 13.0 mph 65% 0.00 in 88.00 W/m2
07:01 64.6 °F 52.6 °F 29.91 in East 5.0 mph 8.0 mph 65% 0.00 in 107.00 W/m2
07:06 64.6 °F 53.0 °F 29.91 in ESE 2.0 mph 8.0 mph 66% 0.00 in 123.00 W/m2
07:11 64.6 °F 53.0 °F 29.91 in ESE 12.0 mph 12.0 mph 66% 0.00 in 139.00 W/m2
07:16 64.6 °F 53.0 °F 29.91 in SE 1.0 mph 11.0 mph 66% 0.00 in 158.00 W/m2
07:21 64.6 °F 53.0 °F 29.91 in ESE 8.0 mph 11.0 mph 66% 0.00 in 179.00 W/m2
07:26 64.7 °F 53.1 °F 29.91 in East 11.0 mph 11.0 mph 66% 0.00 in 202.00 W/m2
07:31 64.8 °F 53.2 °F 29.91 in ESE 6.0 mph 18.0 mph 66% 0.00 in 223.00 W/m2
07:36 64.9 °F 53.7 °F 29.91 in ESE 6.0 mph 13.0 mph 67% 0.00 in 246.00 W/m2
07:41 64.9 °F 53.7 °F 29.91 in ESE 5.0 mph 11.0 mph 67% 0.00 in 267.00 W/m2
07:46 65.0 °F 53.8 °F 29.91 in SE 2.0 mph 9.0 mph 67% 0.00 in 287.00 W/m2
07:51 65.1 °F 53.9 °F 29.92 in ESE 7.0 mph 9.0 mph 67% 0.00 in 302.00 W/m2
07:56 65.2 °F 54.8 °F 29.92 in East 1.0 mph 7.0 mph 69% 0.00 in 318.00 W/m2
08:01 65.3 °F 54.9 °F 29.91 in Calm   7.0 mph 69% 0.00 in 334.00 W/m2
08:06 65.4 °F 54.6 °F 29.92 in ESE 4.0 mph 5.0 mph 68% 0.00 in 332.00 W/m2
08:11 65.4 °F 54.6 °F 29.92 in East 7.0 mph 11.0 mph 68% 0.00 in 373.00 W/m2
08:16 65.6 °F 54.4 °F 29.92 in Calm   4.0 mph 67% 0.00 in 394.00 W/m2
08:22 65.8 °F 54.5 °F 29.92 in ESE 2.0 mph 7.0 mph 67% 0.00 in 410.00 W/m2
08:27 66.0 °F 55.2 °F 29.92 in East 1.0 mph 5.0 mph 68% 0.00 in 422.00 W/m2
08:32 66.2 °F 55.7 °F 29.92 in Calm   7.0 mph 69% 0.00 in 452.00 W/m2
08:34 66.4 °F 56.3 °F 29.92 in ESE 1.0 mph 7.0 mph 70% 0.00 in 415.00 W/m2
08:39 66.5 °F 56.0 °F 29.92 in Calm   6.0 mph 69% 0.00 in 475.00 W/m2
08:44 66.7 °F 56.6 °F 29.92 in ESE 4.0 mph 7.0 mph 70% 0.00 in 487.00 W/m2
08:50 67.0 °F 56.9 °F 29.92 in Calm   8.0 mph 70% 0.00 in 497.00 W/m2
08:54 67.2 °F 57.1 °F 29.92 in ESE 4.0 mph 5.0 mph 70% 0.00 in 517.00 W/m2
09:00 67.4 °F 56.9 °F 29.92 in SE 2.0 mph 7.0 mph 69% 0.00 in 531.00 W/m2
09:05 67.6 °F 56.7 °F 29.92 in SE 2.0 mph 6.0 mph 68% 0.00 in 550.00 W/m2
09:10 67.8 °F 54.8 °F 29.92 in SE 2.0 mph 7.0 mph 63% 0.00 in 494.00 W/m2
09:15 68.2 °F 56.0 °F 29.92 in Calm   6.0 mph 65% 0.00 in 584.00 W/m2
09:16 68.3 °F 56.5 °F 29.92 in SE 2.0 mph 2.0 mph 66% 0.00 in 585.00 W/m2
09:21 68.8 °F 57.0 °F 29.92 in Calm     66% 0.00 in 591.00 W/m2
09:26 69.2 °F 54.7 °F 29.92 in South 1.0 mph 4.0 mph 60% 0.00 in 615.00 W/m2
09:31 69.6 °F 54.7 °F 29.91 in South 2.0 mph 4.0 mph 59% 0.00 in 608.00 W/m2
09:36 70.2 °F 55.2 °F 29.92 in SSE 5.0 mph 6.0 mph 59% 0.00 in 649.00 W/m2
09:41 70.6 °F 54.6 °F 29.92 in SSE 4.0 mph 4.0 mph 57% 0.00 in 603.00 W/m2
09:46 71.0 °F 55.0 °F 29.92 in SSE 6.0 mph 7.0 mph 57% 0.00 in 654.00 W/m2
09:51 71.7 °F 54.7 °F 29.91 in Calm     55% 0.00 in 671.00 W/m2
09:56 72.2 °F 55.7 °F 29.92 in SSE 4.0 mph 6.0 mph 56% 0.00 in 673.00 W/m2
10:01 72.6 °F 55.5 °F 29.91 in SSE 9.0 mph 9.0 mph 55% 0.00 in 703.00 W/m2
10:06 72.9 °F 54.8 °F 29.92 in SSW 2.0 mph 5.0 mph 53% 0.00 in 731.00 W/m2
10:11 73.3 °F 55.2 °F 29.91 in SSE 4.0 mph 5.0 mph 53% 0.00 in 749.00 W/m2
10:16 73.6 °F 54.9 °F 29.91 in SE 5.0 mph 6.0 mph 52% 0.00 in 745.00 W/m2
10:21 73.9 °F 54.7 °F 29.91 in South 5.0 mph 5.0 mph 51% 0.00 in 747.00 W/m2
10:26 74.2 °F 54.9 °F 29.91 in SSE 7.0 mph 10.0 mph 51% 0.00 in 728.00 W/m2
10:31 74.6 °F 56.4 °F 29.91 in South 5.0 mph 7.0 mph 53% 0.00 in 747.00 W/m2
10:36 74.9 °F 56.6 °F 29.92 in South 2.0 mph 8.0 mph 53% 0.00 in 731.00 W/m2
10:41 75.2 °F 55.8 °F 29.91 in SSW 3.0 mph 8.0 mph 51% 0.00 in 715.00 W/m2
10:46 75.7 °F 56.3 °F 29.91 in SSW 2.0 mph 7.0 mph 51% 0.00 in 784.00 W/m2
10:51 76.0 °F 55.5 °F 29.91 in South 9.0 mph 10.0 mph 49% 0.00 in 823.00 W/m2
10:56 76.3 °F 55.8 °F 29.91 in SSW 2.0 mph 4.0 mph 49% 0.00 in 807.00 W/m2
11:01 76.6 °F 54.9 °F 29.91 in SSW 10.0 mph 10.0 mph 47% 0.00 in 842.00 W/m2
11:06 77.0 °F 55.2 °F 29.91 in South 6.0 mph 6.0 mph 47% 0.00 in 849.00 W/m2
11:11 77.3 °F 54.3 °F 29.92 in SSW 2.0 mph 7.0 mph 45% 0.00 in 802.00 W/m2
11:16 77.6 °F 56.4 °F 29.91 in WSW 8.0 mph 8.0 mph 48% 0.00 in 840.00 W/m2
11:21 77.9 °F 54.3 °F 29.91 in SSW 2.0 mph 7.0 mph 44% 0.00 in 868.00 W/m2
11:26 78.3 °F 56.4 °F 29.91 in SSW 1.0 mph 8.0 mph 47% 0.00 in 877.00 W/m2
11:31 78.6 °F 56.7 °F 29.91 in South 3.0 mph 3.0 mph 47% 0.00 in 886.00 W/m2
11:36 78.9 °F 55.2 °F 29.91 in SSW 2.0 mph 2.0 mph 44% 0.00 in 893.00 W/m2
11:41 79.3 °F 56.1 °F 29.91 in SW 10.0 mph 12.0 mph 45% 0.00 in 886.00 W/m2
11:46 79.6 °F 56.4 °F 29.91 in SSW 1.0 mph 7.0 mph 45% 0.00 in 888.00 W/m2
11:51 79.8 °F 56.6 °F 29.91 in SSE 1.0 mph 5.0 mph 45% 0.00 in 889.00 W/m2
11:56 80.1 °F 56.9 °F 29.91 in Calm   1.0 mph 45% 0.00 in 912.00 W/m2
12:01 80.3 °F 57.7 °F 29.90 in South 6.0 mph 7.0 mph 46% 0.00 in 916.00 W/m2
12:06 80.6 °F 57.3 °F 29.90 in SW 4.0 mph 7.0 mph 45% 0.00 in 918.00 W/m2
12:11 81.0 °F 57.7 °F 29.90 in WSW 5.0 mph 5.0 mph 45% 0.00 in 916.00 W/m2
12:16 81.1 °F 59.0 °F 29.90 in SW 2.0 mph 5.0 mph 47% 0.00 in 926.00 W/m2
12:21 81.4 °F 57.4 °F 29.90 in Calm   8.0 mph 44% 0.00 in 925.00 W/m2
12:26 81.8 °F 59.6 °F 29.90 in Calm   1.0 mph 47% 0.00 in 930.00 W/m2
12:31 82.1 °F 59.3 °F 29.90 in Calm   7.0 mph 46% 0.00 in 916.00 W/m2
12:36 82.2 °F 59.4 °F 29.90 in Calm   5.0 mph 46% 0.00 in 930.00 W/m2
12:41 82.3 °F 60.7 °F 29.90 in SW 2.0 mph 9.0 mph 48% 0.00 in 933.00 W/m2
12:46 82.5 °F 59.0 °F 29.89 in SW 8.0 mph 9.0 mph 45% 0.00 in 930.00 W/m2
12:51 82.8 °F 60.5 °F 29.89 in West 6.0 mph 10.0 mph 47% 0.00 in 926.00 W/m2
12:56 83.1 °F 61.4 °F 29.89 in Calm   2.0 mph 48% 0.00 in 935.00 W/m2
13:01 83.0 °F 59.5 °F 29.89 in SW 7.0 mph 8.0 mph 45% 0.00 in 930.00 W/m2
13:06 82.2 °F 60.6 °F 29.89 in Calm   1.0 mph 48% 0.00 in 935.00 W/m2
13:11 82.2 °F 60.6 °F 29.89 in South 3.0 mph 10.0 mph 48% 0.00 in 918.00 W/m2
13:16 82.5 °F 61.4 °F 29.88 in SW 1.0 mph 10.0 mph 49% 0.00 in 918.00 W/m2
13:21 82.9 °F 61.2 °F 29.88 in SW 13.0 mph 15.0 mph 48% 0.00 in 926.00 W/m2
13:27 83.5 °F 60.6 °F 29.88 in SW 6.0 mph 11.0 mph 46% 0.00 in 923.00 W/m2
13:31 83.9 °F 61.5 °F 29.88 in Calm   5.0 mph 47% 0.00 in 912.00 W/m2
13:37 83.9 °F 59.0 °F 29.88 in Calm   13.0 mph 43% 0.00 in 914.00 W/m2
13:41 83.7 °F 58.8 °F 29.88 in Calm   2.0 mph 43% 0.00 in 918.00 W/m2
13:46 83.5 °F 58.7 °F 29.88 in South 9.0 mph 9.0 mph 43% 0.00 in 912.00 W/m2
13:51 83.6 °F 58.1 °F 29.88 in South 2.0 mph 10.0 mph 42% 0.00 in 904.00 W/m2
13:56 83.9 °F 58.4 °F 29.88 in SSW 2.0 mph 2.0 mph 42% 0.00 in 902.00 W/m2
14:02 83.8 °F 58.9 °F 29.88 in West 4.0 mph 11.0 mph 43% 0.00 in 888.00 W/m2
14:07 82.8 °F 58.0 °F 29.88 in Calm   4.0 mph 43% 0.00 in 882.00 W/m2
14:12 82.3 °F 59.5 °F 29.88 in SSW 8.0 mph 8.0 mph 46% 0.00 in 881.00 W/m2
14:17 82.4 °F 59.6 °F 29.88 in SSW 2.0 mph 3.0 mph 46% 0.00 in 877.00 W/m2
14:22 82.6 °F 58.5 °F 29.88 in WSW 11.0 mph 11.0 mph 44% 0.00 in 868.00 W/m2
14:27 82.8 °F 58.0 °F 29.88 in SSW 8.0 mph 9.0 mph 43% 0.00 in 858.00 W/m2
14:32 83.0 °F 58.9 °F 29.88 in SSE 4.0 mph 9.0 mph 44% 0.00 in 851.00 W/m2
14:37 83.2 °F 58.4 °F 29.88 in Calm   9.0 mph 43% 0.00 in 847.00 W/m2
14:42 82.7 °F 58.6 °F 29.88 in WNW 6.0 mph 9.0 mph 44% 0.00 in 837.00 W/m2
14:47 82.5 °F 58.4 °F 29.87 in WNW 4.0 mph 6.0 mph 44% 0.00 in 826.00 W/m2
14:52 82.0 °F 58.6 °F 29.87 in SW 6.0 mph 11.0 mph 45% 0.00 in 823.00 W/m2
14:57 81.6 °F 57.6 °F 29.87 in Calm   2.0 mph 44% 0.00 in 810.00 W/m2
15:02 81.6 °F 58.2 °F 29.87 in SSW 6.0 mph 7.0 mph 45% 0.00 in 809.00 W/m2
15:07 81.6 °F 58.2 °F 29.87 in South 1.0 mph 9.0 mph 45% 0.00 in 796.00 W/m2
15:12 81.7 °F 58.3 °F 29.87 in Calm   12.0 mph 45% 0.00 in 782.00 W/m2
15:17 81.5 °F 56.9 °F 29.86 in SW 8.0 mph 9.0 mph 43% 0.00 in 775.00 W/m2
15:22 81.3 °F 58.0 °F 29.87 in SSW 1.0 mph 11.0 mph 45% 0.00 in 763.00 W/m2
15:27 81.3 °F 58.0 °F 29.86 in WSW 8.0 mph 11.0 mph 45% 0.00 in 752.00 W/m2
15:32 81.3 °F 58.0 °F 29.86 in Calm   8.0 mph 45% 0.00 in 744.00 W/m2
15:37 81.1 °F 57.2 °F 29.86 in WSW 4.0 mph 6.0 mph 44% 0.00 in 721.00 W/m2
15:42 81.1 °F 56.5 °F 29.86 in SW 7.0 mph 13.0 mph 43% 0.00 in 724.00 W/m2
15:47 80.9 °F 57.6 °F 29.86 in Calm   10.0 mph 45% 0.00 in 712.00 W/m2
15:52 80.9 °F 57.6 °F 29.86 in SW 3.0 mph 9.0 mph 45% 0.00 in 687.00 W/m2
15:57 80.8 °F 57.5 °F 29.85 in SSW 8.0 mph 9.0 mph 45% 0.00 in 643.00 W/m2
16:02 80.7 °F 58.0 °F 29.85 in SW 5.0 mph 10.0 mph 46% 0.00 in 631.00 W/m2
16:07 80.7 °F 56.8 °F 29.85 in WSW 5.0 mph 9.0 mph 44% 0.00 in 647.00 W/m2
16:12 80.6 °F 56.7 °F 29.85 in Calm   8.0 mph 44% 0.00 in 643.00 W/m2
16:17 80.3 °F 57.0 °F 29.85 in SW 2.0 mph 11.0 mph 45% 0.00 in 555.00 W/m2
16:22 80.2 °F 57.0 °F 29.85 in SW 1.0 mph 8.0 mph 45% 0.00 in 508.00 W/m2
16:27 80.0 °F 57.4 °F 29.85 in WSW 1.0 mph 8.0 mph 46% 0.00 in 338.00 W/m2
16:32 79.9 °F 58.5 °F 29.85 in Calm   3.0 mph 48% 0.00 in 269.00 W/m2
16:38 79.8 °F 58.4 °F 29.84 in Calm   10.0 mph 48% 0.00 in 410.00 W/m2
16:43 79.6 °F 58.2 °F 29.84 in SW 2.0 mph 9.0 mph 48% 0.00 in 452.00 W/m2
16:48 79.3 °F 57.9 °F 29.84 in West 4.0 mph 5.0 mph 48% 0.00 in 580.00 W/m2
16:53 79.2 °F 58.4 °F 29.84 in Calm   10.0 mph 49% 0.00 in 605.00 W/m2
16:58 79.1 °F 58.3 °F 29.84 in Calm   7.0 mph 49% 0.00 in 443.00 W/m2
17:03 79.1 °F 58.9 °F 29.84 in Calm   7.0 mph 50% 0.00 in 487.00 W/m2
17:08 78.9 °F 59.2 °F 29.84 in WSW 4.0 mph 6.0 mph 51% 0.00 in 380.00 W/m2
17:13 78.8 °F 59.7 °F 29.84 in WSW 8.0 mph 8.0 mph 52% 0.00 in 513.00 W/m2
17:18 78.7 °F 59.6 °F 29.84 in SW 2.0 mph 9.0 mph 52% 0.00 in 392.00 W/m2
17:23 78.6 °F 57.9 °F 29.84 in SW 6.0 mph 11.0 mph 49% 0.00 in 410.00 W/m2
17:28 78.5 °F 56.0 °F 29.85 in Calm   6.0 mph 46% 0.00 in 422.00 W/m2
17:33 78.4 °F 55.3 °F 29.85 in SW 4.0 mph 8.0 mph 45% 0.00 in 459.00 W/m2
17:38 78.4 °F 57.1 °F 29.85 in SW 3.0 mph 8.0 mph 48% 0.00 in 329.00 W/m2
17:43 78.2 °F 56.3 °F 29.85 in Calm   6.0 mph 47% 0.00 in 450.00 W/m2
17:48 78.2 °F 57.5 °F 29.84 in SW 2.0 mph 6.0 mph 49% 0.00 in 378.00 W/m2
17:53 78.2 °F 56.3 °F 29.84 in SSW 9.0 mph 9.0 mph 47% 0.00 in 364.00 W/m2
17:58 78.1 °F 56.2 °F 29.84 in Calm   3.0 mph 47% 0.00 in 320.00 W/m2
18:03 78.0 °F 56.7 °F 29.84 in Calm   4.0 mph 48% 0.00 in 257.00 W/m2
18:08 78.0 °F 56.7 °F 29.84 in Calm   10.0 mph 48% 0.00 in 202.00 W/m2
18:13 77.8 °F 56.0 °F 29.84 in SSW 2.0 mph 7.0 mph 47% 0.00 in 281.00 W/m2
18:18 77.7 °F 57.0 °F 29.84 in Calm   4.0 mph 49% 0.00 in 301.00 W/m2
18:23 77.6 °F 56.4 °F 29.84 in Calm   3.0 mph 48% 0.00 in 294.00 W/m2
18:28 77.5 °F 56.9 °F 29.84 in SSW 1.0 mph 7.0 mph 49% 0.00 in 229.00 W/m2
18:33 77.3 °F 55.5 °F 29.84 in SSW 3.0 mph 7.0 mph 47% 0.00 in 163.00 W/m2
18:38 77.2 °F 55.4 °F 29.84 in SSW 1.0 mph 4.0 mph 47% 0.00 in 111.00 W/m2
18:43 77.1 °F 54.8 °F 29.84 in SSW 6.0 mph 6.0 mph 46% 0.00 in 100.00 W/m2
18:48 76.9 °F 54.6 °F 29.84 in SW 2.0 mph 2.0 mph 46% 0.00 in 90.00 W/m2
18:53 76.7 °F 53.8 °F 29.84 in SW 4.0 mph 6.0 mph 45% 0.00 in 72.00 W/m2
18:58 76.5 °F 53.6 °F 29.84 in Calm   5.0 mph 45% 0.00 in 77.00 W/m2
19:03 76.3 °F 55.2 °F 29.83 in Calm     48% 0.00 in 65.00 W/m2
19:08 76.1 °F 56.1 °F 29.83 in Calm   6.0 mph 50% 0.00 in 62.00 W/m2
19:13 75.8 °F 55.9 °F 29.83 in Calm   7.0 mph 50% 0.00 in 60.00 W/m2
19:18 75.3 °F 55.9 °F 29.83 in Calm   2.0 mph 51% 0.00 in 58.00 W/m2
19:23 75.0 °F 56.2 °F 29.83 in SW 1.0 mph 7.0 mph 52% 0.00 in 56.00 W/m2
19:28 74.6 °F 56.4 °F 29.83 in Calm     53% 0.00 in 47.00 W/m2
19:33 74.3 °F 56.6 °F 29.83 in Calm   2.0 mph 54% 0.00 in 39.00 W/m2
19:38 73.9 °F 56.7 °F 29.83 in Calm   8.0 mph 55% 0.00 in 28.00 W/m2
19:43 73.7 °F 57.0 °F 29.83 in Calm   1.0 mph 56% 0.00 in 19.00 W/m2
19:48 73.3 °F 56.7 °F 29.83 in Calm   7.0 mph 56% 0.00 in 12.00 W/m2
19:53 73.0 °F 56.9 °F 29.83 in Calm     57% 0.00 in 9.00 W/m2
19:58 72.6 °F 57.0 °F 29.83 in Calm     58% 0.00 in 5.00 W/m2
20:03 72.3 °F 57.2 °F 29.83 in Calm   2.0 mph 59% 0.00 in 0.00 W/m2
20:08 72.0 °F 56.9 °F 29.83 in South 2.0 mph 2.0 mph 59% 0.00 in 0.00 W/m2
20:14 71.8 °F 57.2 °F 29.83 in Calm   6.0 mph 60% 0.00 in 0.00 W/m2
20:19 71.5 °F 57.4 °F 29.83 in SSE 6.0 mph 10.0 mph 61% 0.00 in 0.00 W/m2
20:24 71.1 °F 57.0 °F 29.83 in Calm   8.0 mph 61% 0.00 in 0.00 W/m2
20:29 70.9 °F 57.2 °F 29.83 in SSE 7.0 mph 7.0 mph 62% 0.00 in 0.00 W/m2
20:34 70.6 °F 57.0 °F 29.83 in Calm   9.0 mph 62% 0.00 in 0.00 W/m2
20:35 70.6 °F 57.0 °F 29.83 in SSE 4.0 mph 9.0 mph 62% 0.00 in 0.00 W/m2
20:40 70.4 °F 57.2 °F 29.83 in SSE 4.0 mph 9.0 mph 63% 0.00 in 0.00 W/m2
20:45 70.3 °F 57.1 °F 29.83 in SSE 2.0 mph 6.0 mph 63% 0.00 in 0.00 W/m2
20:50 70.1 °F 56.9 °F 29.84 in SSE 7.0 mph 8.0 mph 63% 0.00 in 0.00 W/m2
20:55 70.0 °F 56.8 °F 29.84 in Calm   8.0 mph 63% 0.00 in 0.00 W/m2
21:00 69.9 °F 57.2 °F 29.84 in Calm   8.0 mph 64% 0.00 in 0.00 W/m2
21:05 69.7 °F 57.0 °F 29.84 in SSE 6.0 mph 7.0 mph 64% 0.00 in 0.00 W/m2
21:10 69.6 °F 56.9 °F 29.84 in Calm   8.0 mph 64% 0.00 in 0.00 W/m2
21:15 69.5 °F 57.2 °F 29.84 in Calm   9.0 mph 65% 0.00 in 0.00 W/m2
21:20 69.3 °F 56.6 °F 29.84 in Calm   9.0 mph 64% 0.00 in 0.00 W/m2
21:25 69.1 °F 56.4 °F 29.84 in Calm   8.0 mph 64% 0.00 in 0.00 W/m2
21:30 69.0 °F 56.8 °F 29.84 in Calm   6.0 mph 65% 0.00 in 0.00 W/m2
21:35 68.8 °F 56.6 °F 29.84 in SSE 1.0 mph 8.0 mph 65% 0.00 in 0.00 W/m2
21:40 68.6 °F 56.8 °F 29.84 in SSE 1.0 mph 8.0 mph 66% 0.00 in 0.00 W/m2
21:45 68.5 °F 56.7 °F 29.84 in Calm   4.0 mph 66% 0.00 in 0.00 W/m2
21:50 68.3 °F 56.5 °F 29.84 in Calm   4.0 mph 66% 0.00 in 0.00 W/m2
21:55 68.2 °F 56.8 °F 29.84 in Calm   9.0 mph 67% 0.00 in 0.00 W/m2
22:00 68.0 °F 56.7 °F 29.84 in SSE 9.0 mph 10.0 mph 67% 0.00 in 0.00 W/m2
22:05 67.8 °F 56.5 °F 29.84 in SSE 1.0 mph 9.0 mph 67% 0.00 in 0.00 W/m2
22:10 67.6 °F 56.3 °F 29.84 in SSE 5.0 mph 8.0 mph 67% 0.00 in 0.00 W/m2
22:15 67.4 °F 56.5 °F 29.84 in Calm   7.0 mph 68% 0.00 in 0.00 W/m2
22:20 67.3 °F 56.4 °F 29.84 in SSE 2.0 mph 8.0 mph 68% 0.00 in 0.00 W/m2
22:25 67.2 °F 56.7 °F 29.84 in SSE 5.0 mph 9.0 mph 69% 0.00 in 0.00 W/m2
22:30 67.2 °F 56.7 °F 29.84 in SSE 8.0 mph 11.0 mph 69% 0.00 in 0.00 W/m2
22:35 67.1 °F 56.6 °F 29.84 in Calm   10.0 mph 69% 0.00 in 0.00 W/m2
22:40 67.1 °F 56.6 °F 29.84 in South 7.0 mph 10.0 mph 69% 0.00 in 0.00 W/m2
22:45 67.1 °F 56.6 °F 29.84 in South 8.0 mph 10.0 mph 69% 0.00 in 0.00 W/m2
22:50 67.0 °F 56.5 °F 29.84 in South 9.0 mph 12.0 mph 69% 0.00 in 0.00 W/m2
22:55 67.0 °F 56.9 °F 29.84 in South 8.0 mph 12.0 mph 70% 0.00 in 0.00 W/m2
23:00 67.0 °F 56.9 °F 29.84 in South 7.0 mph 11.0 mph 70% 0.00 in 0.00 W/m2
23:05 66.9 °F 56.4 °F 29.84 in South 5.0 mph 11.0 mph 69% 0.00 in 0.00 W/m2
23:10 66.8 °F 56.3 °F 29.84 in South 9.0 mph 9.0 mph 69% 0.00 in 0.00 W/m2
23:15 66.7 °F 56.2 °F 29.84 in South 6.0 mph 10.0 mph 69% 0.00 in 0.00 W/m2
23:20 66.6 °F 55.7 °F 29.84 in South 4.0 mph 9.0 mph 68% 0.00 in 0.00 W/m2
23:25 66.5 °F 55.6 °F 29.84 in South 11.0 mph 13.0 mph 68% 0.00 in 0.00 W/m2
23:31 66.3 °F 54.6 °F 29.84 in South 6.0 mph 12.0 mph 66% 0.00 in 0.00 W/m2
23:36 66.1 °F 53.6 °F 29.84 in South 11.0 mph 12.0 mph 64% 0.00 in 0.00 W/m2
23:41 65.9 °F 52.5 °F 29.85 in SSE 6.0 mph 8.0 mph 62% 0.00 in 0.00 W/m2
23:46 65.7 °F 51.9 °F 29.85 in SSE 10.0 mph 10.0 mph 61% 0.00 in 0.00 W/m2
23:51 65.5 °F 51.7 °F 29.85 in SSE 7.0 mph 10.0 mph 61% 0.00 in 0.00 W/m2
23:56 65.3 °F 51.5 °F 29.85 in SSE 7.0 mph 9.0 mph 61% 0.00 in 0.00 W/m2
Foresthill Weather
 WU-history PHP script courtesy of   Juneau County Weather.
powered by Cumulus v1.9.3 (1059)
Ambient Weather VWS v14.00
Top Contact Website Map Copyright © 2007 - 2018 Foresthillweather.com Never base important decisions on this or any weather information obtained from the Internet